STARLINK-3983 (52618 NORAD) Tracking and Keplerian Element Data

This shows tracking and keplerian element data for the satellite.

Feedback or suggestion? Click here.




ElementValue
Catalog52618
NameSTARLINK-3983
Epoch Orbit130
Epoch Day192.91667824
Epoch Year2022
RAAN152.9674
Inclination53.2176
Eccentricity0.0001151
Argument of Perigee86.9522
Mean Anonmoly101.3045
Mean Motion15.5000494
Decay Rate-0.00325277
L11 52618U 22052W 22192.91667824 -.00325277 00000+0 -59390-2 0 9997
L22 52618 53.2176 152.9674 0001151 86.9522 101.3045 15.50004940 1308

Live tracking and technical data element details for STARLINK-3983 (NORAD 52618). STARLINK-3983 can be tracked NOW for your location showing map with azimuth and elevation plus other details from your city location.

Track the satellite on the map from your city or location and see movement details for azimuth, elevation, latitude, longitude, range, height, and movement on the map or in text.







IsCatalogInMostPopularTable: catalog: 52618, numindb: 6
Update: records affected: 1



GetName: 52618 STARLINK-3983

Hit Count: updated at: Sun, 14 Aug 2022 01:14:31 GMT